Wind_Speed
40 45 42 31 35 40 39 40 42 41 46 46 48 48 50 46 43 39 39 38 37 28 27 30 31 32 33 29 29 29 30 31 33 33 32 33 35 37 38 41 43 45 48 51
45 47 36 40 44 48 47 48 45 44 45 49 48 47 48 45 41 33 35 39 37 26 28 27 29 32 32 31 31 31 31 32 34 35 35 36 38 40 43 45 48 51 55 59
44 43 44 49 47 46 44 43 39 39 38 46 47 46 44 43 44 34 37 39 38 33 29 26 29 34 32 32 33 32 33 34 35 37 38 39 41 44 47 50 52 56 59 63
48 43 44 44 46 41 38 37 39 39 40 43 44 48 45 44 44 41 36 36 37 35 35 31 35 36 34 33 34 35 35 37 38 39 40 42 45 48 50 53 56 58 61 68
51 46 42 46 39 40 39 37 42 40 39 40 45 49 46 45 46 42 41 42 41 36 34 36 37 35 36 36 35 36 37 38 40 41 44 46 49 51 52 54 56 60 65 65
54 49 48 44 41 43 42 44 45 46 44 47 46 45 42 48 40 41 46 46 42 41 38 37 38 37 37 37 38 39 39 40 42 44 47 49 52 52 52 53 56 59 62 61
56 52 46 50 52 48 46 45 48 50 53 51 46 47 42 45 45 43 45 45 43 42 39 39 39 39 38 38 39 40 41 42 43 45 49 50 51 51 52 54 55 57 57 58
57 60 54 51 52 49 48 48 51 53 51 48 47 53 47 45 45 46 46 45 44 42 40 43 43 43 42 41 43 44 44 45 45 47 50 50 50 51 53 55 55 57 55 57
42 54 50 49 43 40 43 50 49 50 51 53 55 54 48 46 47 48 46 45 43 41 42 45 45 46 46 47 46 47 48 48 47 49 50 49 50 52 54 56 59 58 55 58
63 54 51 46 44 44 47 45 47 53 55 56 53 54 49 47 47 48 48 49 46 45 47 49 50 50 53 52 50 49 49 48 47 49 49 47 49 54 56 60 62 59 55 56
65 58 54 53 53 49 43 46 47 50 53 57 56 56 49 50 51 52 52 52 49 48 51 51 54 51 52 51 50 50 49 47 48 49 47 49 54 58 61 65 62 59 54 55
53 44 62 58 52 52 54 51 49 52 51 50 49 45 48 51 51 52 51 51 51 53 52 51 52 53 50 48 48 47 47 48 50 44 48 52 57 60 63 67 61 58 50 51
48 51 50 60 52 59 53 52 53 54 53 55 55 47 50 49 50 52 53 51 51 50 49 47 45 50 44 43 43 48 47 48 45 46 51 56 57 61 63 59 55 51 48 47
49 50 56 41 44 43 49 48 52 57 59 53 55 50 51 52 54 56 54 51 48 47 44 43 38 42 42 44 48 45 43 44 49 50 54 54 57 56 56 51 48 46 43 44
50 43 45 48 56 48 45 47 59 58 59 61 51 52 53 55 51 52 54 44 40 42 38 31 36 40 44 40 44 43 50 50 53 53 58 54 52 51 50 45 42 40 42 42
46 53 46 53 57 57 59 52 56 58 60 59 58 55 51 57 61 59 48 46 39 40 46 53 52 47 48 46 41 43 49 53 54 52 47 47 45 47 48 41 39 41 38 37
47 60 48 41 43 40 45 54 55 58 61 61 61 56 54 58 59 58 58 50 35 44 45 50 51 50 57 48 44 47 49 42 40 42 41 43 48 44 35 37 41 34 30 32
56 45 51 54 46 45 29 42 50 57 65 62 61 58 61 59 57 53 54 54 52 50 57 50 43 44 41 43 42 42 40 42 42 41 42 46 45 33 36 40 34 26 26 24
38 38 45 51 52 54 47 36 36 43 51 58 56 54 55 52 54 58 59 62 61 57 56 53 50 38 36 38 40 42 46 45 41 40 42 46 37 30 36 35 27 25 23 21
34 37 40 42 44 42 42 37 39 34 35 40 48 53 57 57 59 55 53 49 43 42 37 36 38 41 41 42 43 47 50 48 39 41 43 39 30 31 36 27 22 22 19 16
30 34 36 40 39 42 40 30 35 34 32 32 32 33 37 38 41 41 39 37 39 41 44 45 45 45 46 43 43 46 45 38 38 42 37 31 30 36 25 22 19 17 15 13
29 32 30 23 25 25 28 26 26 28 31 32 39 39 43 41 41 42 43 44 45 46 48 46 44 44 43 43 42 40 36 37 40 38 30 30 36 23 22 18 17 14 13 7
23 20 19 22 21 27 27 25 27 25 25 31 41 43 45 47 46 45 49 49 42 40 42 43 43 42 40 39 37 34 34 34 35 31 31 40 24 22 19 15 16 13 13 12
23 21 21 21 19 21 25 32 37 36 30 27 29 28 29 30 29 31 32 29 30 32 32 33 35 32 34 34 34 34 32 33 31 32 33 23 22 21 17 16 15 14 16 14
25 24 24 29 25 25 30 27 33 36 36 33 32 35 36 39 41 42 40 38 37 36 36 36 35 32 34 34 34 32 32 31 33 29 23 23 22 19 18 18 17 18 18 18
27 27 30 31 32 37 38 37 47 43 30 30 34 33 30 34 36 37 37 35 34 34 36 39 40 38 39 35 33 32 31 32 29 24 24 24 22 20 20 20 21 20 21 22
Wind_Direction
260 259 258 254 253 254 252 254 257 257 262 260 263 265 266 266 264 262 261 267 265 272 276 278 279 276 272 275 276 276 277 277 278 279 280 281 284 285 288 290 292 290 288 287
259 265 259 254 250 250 251 260 262 260 261 264 260 260 264 267 264 262 271 273 271 272 279 282 280 277 279 280 277 275 277 278 281 284 285 286 288 291 293 293 293 292 292 293
265 263 253 256 261 259 262 259 258 260 255 258 261 263 265 267 270 270 271 275 277 281 288 281 275 273 276 275 275 277 278 281 282 282 284 288 290 292 293 293 293 295 296 297
260 259 259 255 256 258 262 262 257 253 253 257 265 264 264 268 274 277 275 274 281 288 290 288 283 282 277 273 275 275 277 278 279 283 287 289 291 293 293 294 294 294 296 295
259 258 251 253 248 254 255 254 254 253 253 254 253 263 269 268 273 284 285 279 275 279 280 278 277 273 270 272 275 277 278 280 282 285 289 291 293 294 293 295 296 296 298 296
253 255 253 250 247 247 248 249 254 256 254 251 254 252 262 269 277 273 271 275 280 281 281 277 275 272 272 275 280 282 283 284 284 287 289 291 292 291 293 296 299 301 301 303
253 249 250 248 245 244 249 255 255 255 255 259 261 262 263 265 262 262 267 271 275 278 280 278 276 278 281 282 283 282 282 283 285 288 290 289 289 293 296 300 302 301 301 303
248 246 245 246 248 251 254 254 254 256 259 264 265 259 262 264 267 268 268 271 276 279 277 275 279 282 285 283 284 283 284 285 286 288 287 287 292 296 299 300 302 302 303 300
247 241 242 239 244 247 250 251 260 260 259 258 258 261 265 268 269 268 272 274 276 279 277 279 280 281 283 283 283 283 282 282 285 286 284 287 291 296 299 302 304 303 300 297
258 251 238 244 237 238 246 252 254 254 255 258 260 263 265 270 274 274 275 278 279 280 278 276 279 284 286 285 281 279 280 284 286 287 285 289 295 301 300 305 305 301 298 297
266 266 248 253 255 250 257 255 256 261 261 264 264 264 270 273 273 273 273 275 277 277 273 274 281 285 287 285 283 283 283 283 289 290 289 294 298 303 304 305 303 299 297 295
270 263 265 261 264 265 261 253 257 257 261 266 269 267 268 270 269 270 271 271 270 270 274 278 282 281 280 280 281 282 282 287 290 288 295 300 302 304 302 304 301 299 299 297
259 257 267 272 267 265 251 266 268 256 251 252 257 266 263 264 266 266 265 268 270 274 275 277 274 273 274 276 278 280 283 287 286 294 299 304 302 302 303 301 299 299 299 300
244 249 252 273 260 244 248 255 254 250 250 256 254 256 257 261 262 263 265 265 270 269 275 271 270 274 265 272 275 277 280 282 287 297 303 303 303 300 300 298 299 300 303 304
231 248 247 258 238 260 251 238 241 246 247 249 251 253 255 258 262 258 265 264 261 275 275 258 275 265 256 260 273 280 288 292 295 300 300 298 301 300 298 297 302 306 308 304
231 250 246 239 236 249 250 244 246 239 238 241 247 252 252 251 251 256 252 252 261 266 261 253 270 274 269 275 280 286 288 292 296 295 295 301 301 299 297 296 302 311 305 303
240 247 250 245 230 222 226 234 234 235 237 240 239 247 244 252 252 252 250 246 272 274 260 249 254 265 275 277 289 288 290 292 294 290 294 297 300 297 292 295 310 304 304 306
250 254 252 248 249 241 233 222 228 228 231 235 236 240 248 242 244 246 250 260 280 277 269 261 265 272 282 284 287 285 285 294 289 285 293 297 298 288 293 306 303 299 303 310
269 267 271 265 264 268 258 279 271 239 223 235 240 240 244 250 259 263 269 278 276 271 267 267 271 267 263 273 274 275 287 292 285 287 292 295 290 287 297 302 295 297 294 293
257 265 270 274 276 279 278 281 275 275 275 265 261 265 262 268 271 273 271 269 271 272 271 269 272 273 277 275 277 283 286 285 280 286 295 292 289 294 300 290 292 294 295 294
261 269 271 273 281 283 281 269 272 269 256 255 253 254 261 262 266 266 268 266 270 272 273 274 273 276 276 276 280 281 279 277 279 289 288 281 291 296 287 283 287 287 288 283
251 259 267 268 278 282 276 271 265 263 250 245 247 255 256 260 261 264 265 264 266 269 269 271 271 271 273 275 275 273 274 276 284 286 278 287 292 280 280 277 278 277 281 254
239 243 252 259 268 259 254 263 265 268 269 262 259 265 264 262 266 267 264 269 267 267 268 269 268 269 269 269 267 268 272 284 286 280 278 284 270 274 267 263 265 267 238 242
233 253 259 255 272 282 273 270 269 268 265 264 263 264 262 259 263 264 264 265 271 269 269 273 273 270 265 265 267 268 280 285 279 276 275 265 269 263 255 250 249 240 234 249
239 248 256 257 266 292 303 294 298 273 262 257 256 262 269 269 266 268 268 268 268 269 272 271 270 270 271 269 271 275 284 280 271 265 263 264 261 249 238 242 238 238 244 253
255 252 259 267 273 270 283 296 298 290 276 259 263 264 269 267 264 262 265 270 271 270 267 265 266 267 265 270 272 277 280 276 261 260 259 260 247 242 236 240 238 247 252 260
Height
5768 5767 5772 5779 5777 5776 5777 5776 5779 5782 5780 5780 5779 5779 5778 5781 5781 5782 5779 5779 5780 5785 5785 5782 5780 5778 5778 5778 5777 5776 5775 5775 5773 5771 5770 5769 5767 5765 5763 5762 5760 5757 5754 5751
5758 5759 5768 5767 5766 5765 5765 5766 5768 5771 5771 5767 5767 5768 5766 5767 5769 5770 5768 5767 5770 5777 5775 5774 5772 5768 5768 5769 5768 5767 5766 5765 5763 5761 5758 5757 5755 5753 5751 5749 5748 5744 5739 5736
5749 5753 5754 5753 5755 5753 5754 5756 5760 5759 5759 5756 5754 5755 5758 5758 5757 5764 5760 5758 5760 5763 5766 5767 5765 5762 5761 5759 5758 5757 5756 5754 5752 5750 5748 5746 5744 5742 5740 5737 5735 5731 5725 5721
5736 5742 5743 5743 5742 5745 5746 5750 5749 5748 5747 5747 5746 5743 5746 5748 5748 5749 5754 5753 5750 5752 5755 5754 5752 5751 5750 5749 5748 5747 5746 5745 5743 5740 5738 5735 5733 5730 5727 5724 5722 5719 5714 5709
5726 5730 5733 5729 5735 5734 5737 5737 5735 5737 5737 5739 5737 5734 5735 5741 5739 5741 5742 5741 5743 5749 5749 5747 5744 5742 5742 5742 5740 5737 5735 5734 5732 5729 5726 5723 5720 5717 5714 5710 5707 5705 5702 5695
5713 5717 5719 5723 5723 5723 5725 5724 5724 5724 5726 5725 5727 5731 5731 5727 5737 5735 5732 5732 5735 5737 5737 5736 5734 5733 5732 5732 5729 5726 5725 5722 5719 5716 5714 5711 5708 5705 5701 5696 5692 5689 5684 5680
5702 5706 5708 5708 5708 5709 5710 5712 5711 5711 5708 5711 5717 5717 5722 5722 5724 5727 5725 5725 5725 5725 5725 5724 5722 5720 5721 5721 5718 5715 5713 5711 5707 5705 5702 5699 5695 5691 5687 5682 5678 5674 5669 5665
5682 5691 5695 5699 5697 5701 5699 5699 5697 5694 5699 5706 5703 5697 5707 5712 5712 5712 5713 5714 5714 5714 5713 5712 5711 5708 5708 5709 5707 5704 5701 5698 5695 5693 5690 5686 5682 5677 5673 5669 5664 5659 5654 5649
5668 5672 5682 5683 5683 5683 5688 5682 5692 5685 5685 5686 5687 5689 5696 5699 5700 5700 5701 5700 5700 5700 5700 5699 5699 5698 5697 5697 5696 5692 5689 5686 5684 5681 5678 5673 5669 5666 5661 5656 5651 5645 5638 5633
5653 5656 5666 5672 5665 5669 5665 5673 5674 5668 5669 5669 5676 5675 5682 5686 5688 5687 5687 5687 5687 5689 5689 5687 5688 5686 5683 5682 5682 5678 5675 5673 5671 5668 5665 5661 5657 5653 5649 5642 5637 5632 5624 5619
5637 5640 5654 5652 5658 5664 5660 5657 5658 5659 5660 5658 5663 5664 5674 5676 5675 5673 5673 5675 5676 5676 5676 5677 5677 5672 5668 5668 5667 5665 5663 5660 5658 5655 5652 5648 5645 5640 5635 5630 5624 5619 5611 5606
5621 5622 5627 5637 5643 5646 5643 5643 5646 5643 5648 5648 5651 5656 5659 5658 5660 5660 5663 5665 5664 5664 5665 5665 5664 5659 5655 5654 5653 5652 5650 5648 5647 5644 5640 5637 5634 5628 5623 5617 5611 5607 5599 5595
5607 5603 5609 5617 5623 5622 5618 5631 5632 5632 5631 5630 5635 5648 5645 5646 5645 5644 5647 5650 5651 5652 5651 5652 5651 5647 5645 5643 5641 5639 5639 5638 5635 5633 5629 5625 5621 5616 5611 5605 5600 5596 5587 5583
5599 5598 5593 5600 5604 5606 5610 5613 5618 5617 5614 5621 5621 5629 5631 5632 5632 5631 5636 5638 5639 5638 5639 5640 5639 5638 5636 5632 5629 5629 5629 5626 5625 5622 5617 5612 5609 5605 5600 5595 5590 5585 5578 5573
5588 5587 5585 5588 5586 5588 5594 5597 5600 5602 5601 5600 5614 5612 5618 5617 5617 5620 5622 5624 5625 5626 5627 5627 5626 5627 5625 5622 5617 5617 5618 5615 5613 5610 5605 5602 5599 5594 5590 5586 5581 5575 5568 5563
5572 5574 5573 5574 5573 5573 5578 5584 5587 5590 5591 5591 5594 5602 5606 5608 5602 5605 5607 5611 5614 5615 5616 5616 5613 5615 5613 5610 5606 5604 5606 5604 5601 5598 5594 5591 5588 5584 5580 5576 5572 5564 5559 5554
5562 5562 5563 5564 5559 5558 5564 5573 5577 5578 5579 5579 5580 5592 5592 5591 5592 5592 5595 5602 5605 5605 5603 5601 5602 5601 5599 5598 5596 5596 5595 5593 5590 5589 5584 5581 5578 5573 5570 5568 5562 5556 5552 5548
5548 5548 5548 5552 5550 5551 5559 5561 5564 5560 5565 5564 5566 5576 5581 5582 5581 5581 5583 5588 5591 5593 5594 5592 5591 5589 5589 5586 5586 5586 5583 5581 5580 5578 5575 5571 5568 5565 5563 5558 5553 5550 5547 5543
5540 5539 5538 5540 5544 5545 5557 5552 5544 5547 5556 5556 5558 5564 5570 5567 5566 5569 5575 5575 5576 5579 5579 5579 5578 5578 5578 5575 5575 5574 5571 5571 5570 5568 5564 5562 5559 5556 5554 5550 5546 5544 5542 5539
5531 5532 5534 5535 5534 5538 5549 5539 5532 5542 5548 5544 5550 5552 5554 5556 5558 5561 5562 5563 5563 5565 5565 5565 5565 5564 5563 5563 5562 5560 5560 5561 5560 5557 5554 5552 5550 5549 5546 5543 5540 5538 5536 5535
5525 5525 5528 5527 5524 5530 5535 5531 5524 5531 5542 5540 5540 5542 5541 5545 5546 5549 5550 5551 5552 5553 5554 5554 5552 5551 5552 5553 5551 5550 5551 5551 5549 5547 5545 5544 5542 5540 5537 5536 5535 5533 5532 5531
5520 5520 5521 5521 5521 5524 5521 5520 5519 5519 5526 5528 5531 5532 5532 5535 5536 5539 5540 5541 5541 5542 5542 5541 5541 5541 5541 5541 5541 5541 5540 5540 5538 5537 5537 5536 5534 5531 5531 5530 5529 5528 5528 5527
5512 5515 5516 5518 5518 5519 5518 5516 5513 5513 5516 5519 5520 5519 5521 5524 5527 5528 5529 5530 5528 5528 5529 5530 5530 5530 5529 5531 5531 5531 5530 5529 5528 5528 5528 5527 5525 5524 5524 5524 5524 5524 5524 5524
5505 5507 5510 5510 5511 5510 5510 5509 5509 5509 5511 5511 5511 5511 5512 5513 5515 5516 5517 5517 5517 5518 5519 5518 5519 5519 5520 5520 5521 5521 5520 5519 5519 5519 5518 5517 5517 5518 5518 5519 5519 5519 5520 5520
5499 5501 5502 5503 5504 5501 5501 5501 5502 5502 5502 5503 5503 5503 5504 5505 5506 5507 5508 5508 5508 5509 5509 5510 5510 5510 5510 5511 5512 5511 5510 5511 5511 5510 5510 5510 5511 5511 5512 5513 5514 5514 5515 5516
5493 5494 5494 5495 5495 5495 5494 5493 5493 5497 5495 5494 5494 5495 5495 5495 5497 5497 5498 5498 5498 5499 5499 5499 5499 5499 5499 5500 5501 5501 5501 5501 5502 5503 5503 5502 5503 5504 5505 5507 5508 5509 5510 5510